IRIDIUM 33 DEB, 34696

Orbit data source: Space-Track

IRIDIUM 33 DEB, 34696 is space debris in LEO originally from a launch on Sun, 14 Sep 1997 UTC launched from the Tyuratam Missile And Space Complex (TTMTR). The debris from Iridium 33, an American commercial communications satellite, has been tracked extensively since its accidental collision with the defunct Russian satellite Cosmos 2251 in 2009. This event, occurring at high speed in low Earth orbit (LEO), generated thousands of pieces of space debris, significantly increasing the risk of further collisions. The Iridium 33 debris cloud has impacted space traffic management and orbital debris mitigation strategies, making it a subject of ongoing study in space situational awareness.

Loading next visibility...
Identifier
34696, 1997-051KT
Orbit
LEO
Country
Flag of USUS
Related business
Manufacturer
Unknown
Mission
Spacecraft
Bus & Motor
Unknown
Mass
Unknown
Launch date (UTC)
1997-09-14 (29 years ago)
Launch vehicle
Unknown
Launch site
Tyuratam Missile And Space Complex (TTMTR)
Object type
Payload
Rocket body
Debris
Shape & HBR
Unknown shape, 0.1 m
Radar Cross Section
Small (<0.1 m²)

Expand to show TLE details & history
Last TLE update: 5 hours ago

TLE from 5 hours ago
0 IRIDIUM 33 DEB
1 34696U 97051KT  26121.51382596  .00031024  00000-0  44167-2 0  9995
2 34696  86.1828 321.9153 0061464  47.1924 336.0497 14.75377867887274
Epoch: 2026-05-01T12:19Z
TLE epoch observation values (Epoch: 2026-05-01T12:19:54.562Z)
Latitude
22.91825°
Longitude
-80.89935°
Altitude
607.503 km
Speed
7.579 km/s
True Right ascension
21h 34m 05s
True Declination
22° 47' 33"
Sunlit
Object was in daylight at epoch
Visualization orbit readout
Latitude
Unknown
Longitude
Unknown
Altitude
Unknown
Speed
Unknown
Apparent Right ascension
Unknown
Apparent Declination
Unknown
Sunlit
N/A
Visualization observer readout
Local Sidereal Time
01:15:38
Azimuth
Unknown
Elevation
Unknown
Doppler factor
Unknown
Orbital elements
Apogee altitude
684.005 km
Perigee altitude
597.721 km
Semi-major axis
7,019 km
Eccentricity
0.00615
Inclination
86.1828°
RAAN
321.9153°
Arg. of periapsis
47.1924°
True anomaly
335.76176°
Mean anomaly
336.0497°
Eccentric anomaly
335.90593°
Mean motion
3.69088 °/min
Orbital period
97.54 mins
BSTAR
0.0044167
Loading maneuver chart data...
Computing Atmospheric mass density...
Loading historical data...
Loading historical data...
Loading historical data...
Loading historical data...
Loading historical data...
Loading historical data...
Loading historical data...

Documentation

Showing up to 5 results
|